User: anonymous
Location: Standeford and Andreas Observatories
(44.1397°N, 93.9969°W)
Time: 03:09:52
(UTC-05:00)
Language:

Cosmos 1500 Rocket - Orbit

View from above orbital plane
View from above orbital plane
View from above satellite
View from above satellite

Ground track
Ground track

The orbit data is extracted from the following two-line orbital elements,

1 14373U 83099B   14241.24171377  .00000257  00000-0  28521-4 0  7445
2 14373 082.5408 120.2631 0020153 006.0183 133.4438 14.83127418669210
Epoch (UTC): 29 August 2014 05:48:04
Eccentricity: 0.0020153
inclination: 82.5408°
perigee height: 605 km
apogee height: 633 km
right ascension of ascending node: 120.2631°
argument of perigee: 6.0183°
revolutions per day: 14.83127418
mean anomaly at epoch: 133.4438°
orbit number at epoch: 66921

The dashed part of the orbit path shows where the satellite is in the earth's shadow,  

DLR